Weather reports worldwide

Advertisment
Marrakech, Morocco (60230): temperature & dewpoint: 16.07.2017 19:00:00 - 22.07.2017 19:00:00 (WEST)Marrakech, Morocco (60230): wind speed: 16.07.2017 19:00:00 - 22.07.2017 19:00:00 (WEST)Marrakech, Morocco (60230): wind direction: 16.07.2017 19:00:00 - 22.07.2017 19:00:00 (WEST)Marrakech, Morocco (60230): reduced air pressure: 16.07.2017 19:00:00 - 22.07.2017 19:00:00 (WEST)Marrakech, Morocco (60230): visibility: 16.07.2017 19:00:00 - 22.07.2017 19:00:00 (WEST)
Date & Time tt [°C] td [°C] ff [km/h] ff [kn] dd ppp [hPa] vv [km]
22.07.2017 19:00:00 32,7 6,1 9 5 N 1010,6 10
22.07.2017 18:00:00 33,0 6,0 8 4 - - 10
22.07.2017 17:00:00 32,0 6,0 4 2 - - 10
22.07.2017 16:00:00 31,0 6,8 8 4 N 1010,8 10
22.07.2017 15:00:00 30,0 7,0 11 6 N - 10
22.07.2017 14:00:00 28,0 8,0 9 5 NNW - 10
22.07.2017 13:00:00 26,3 8,3 8 4 WNW 1013,2 10
22.07.2017 12:00:00 24,0 9,0 8 4 NW - 10
22.07.2017 11:00:00 22,0 9,0 9 5 - - 10
22.07.2017 10:00:00 21,3 8,9 5 3 NNE 1014,1 10
22.07.2017 09:00:00 20,0 10,0 5 3 NE - 10
22.07.2017 08:00:00 19,0 10,0 8 4 ENE - 10
22.07.2017 07:00:00 17,6 9,5 8 4 ENE 1014,0 10
22.07.2017 06:00:00 18,0 9,0 9 5 ENE - 10
22.07.2017 05:00:00 18,0 10,0 9 5 NE - 10
22.07.2017 04:00:00 17,8 9,2 11 6 NNE 1013,7 10
22.07.2017 03:00:00 19,0 9,0 13 7 NNE - 10
22.07.2017 02:00:00 20,0 9,0 11 6 NNE - 10
22.07.2017 01:00:00 20,7 8,7 15 8 NNE 1013,2 10
22.07.2017 00:00:00 21,0 8,0 11 6 N - 10
21.07.2017 23:00:00 22,0 8,0 15 8 NNE - 10
21.07.2017 22:00:00 23,3 7,0 18 10 NNE 1012,6 10
21.07.2017 21:00:00 26,0 7,0 26 14 N - 10
21.07.2017 20:00:00 29,0 6,0 21 11 N - 10
21.07.2017 19:00:00 30,2 6,1 15 8 N 1009,5 10
21.07.2017 18:00:00 31,0 7,0 11 6 - - 10
21.07.2017 17:00:00 30,0 8,0 11 6 NW - 10
21.07.2017 16:00:00 29,5 7,4 9 5 - 1010,3 10
21.07.2017 15:00:00 29,0 8,0 11 6 - - 10
21.07.2017 14:00:00 27,0 9,0 11 6 - - 10
21.07.2017 13:00:00 25,2 9,1 11 6 N 1013,1 10
21.07.2017 12:00:00 24,0 9,0 9 5 N - 10
21.07.2017 11:00:00 22,0 10,0 11 6 ENE - 10
21.07.2017 10:00:00 20,3 10,1 9 5 NE 1014,7 10
21.07.2017 09:00:00 19,0 10,0 11 6 ENE - 10
21.07.2017 08:00:00 18,0 10,0 13 7 NE - 10
21.07.2017 07:00:00 17,4 9,6 15 8 NNE 1014,9 10
21.07.2017 06:00:00 18,0 10,0 11 6 NNE - 10
21.07.2017 05:00:00 18,0 10,0 13 7 N - 10
21.07.2017 04:00:00 18,8 10,1 13 7 N 1014,2 10
21.07.2017 03:00:00 20,0 10,0 11 6 N - 10
21.07.2017 02:00:00 - - - - - - -
21.07.2017 01:00:00 21,1 10,3 11 6 NE 1014,4 10
21.07.2017 00:00:00 22,0 10,0 15 8 NNE - 10
20.07.2017 23:00:00 23,0 10,0 15 8 NNE - 10
20.07.2017 22:00:00 23,7 9,3 15 8 NNE 1014,0 10
20.07.2017 21:00:00 26,0 10,0 21 11 N - 10
20.07.2017 20:00:00 29,0 9,0 21 11 N - 10
20.07.2017 19:00:00 32,8 6,9 13 7 NW 1009,7 10
20.07.2017 18:00:00 33,0 6,0 11 6 NW - 10
20.07.2017 17:00:00 33,0 6,0 9 5 - - 10
20.07.2017 16:00:00 32,4 8,0 8 4 NNW 1010,8 10
20.07.2017 15:00:00 31,0 9,0 8 4 - - 10
20.07.2017 14:00:00 29,0 10,0 5 3 - - 10
20.07.2017 13:00:00 27,5 9,3 11 6 NNW 1013,7 10
20.07.2017 12:00:00 26,0 11,0 9 5 N - 10
20.07.2017 11:00:00 25,0 11,0 4 2 - - 10
20.07.2017 10:00:00 23,6 11,6 4 2 WNW 1015,1 10
20.07.2017 09:00:00 22,0 13,0 9 5 NNE - 10
20.07.2017 08:00:00 19,0 13,0 8 4 SW - 10
20.07.2017 07:00:00 18,8 13,2 9 5 SW 1015,4 10
20.07.2017 06:00:00 19,0 13,0 9 5 SW - 10
20.07.2017 05:00:00 20,0 13,0 13 7 SW - 10
20.07.2017 04:00:00 20,9 12,3 11 6 SW 1014,7 10
20.07.2017 03:00:00 22,0 12,0 11 6 SW - 10
20.07.2017 02:00:00 23,0 11,0 11 6 SW - 10
20.07.2017 01:00:00 25,9 8,8 5 3 E 1014,3 10
20.07.2017 00:00:00 27,0 8,0 9 5 NE - 10
19.07.2017 23:00:00 28,0 8,0 15 8 NNE - 10
19.07.2017 22:00:00 29,0 7,6 18 10 NNE 1013,9 10
19.07.2017 21:00:00 31,0 5,0 21 11 N - 10
19.07.2017 20:00:00 34,0 2,0 18 10 N - -
19.07.2017 19:00:00 35,7 5,1 16 9 NNW 1010,6 10
19.07.2017 18:00:00 37,0 4,0 15 8 NNW - 10
19.07.2017 17:00:00 38,0 4,0 11 6 N - 10
19.07.2017 16:00:00 37,1 3,0 8 4 N 1010,5 10
19.07.2017 15:00:00 37,0 5,0 9 5 N - 10
19.07.2017 14:00:00 35,0 6,0 9 5 NNW - 10
19.07.2017 13:00:00 33,5 7,5 11 6 NNW 1011,9 10
19.07.2017 12:00:00 31,0 11,0 8 4 W - 10
19.07.2017 11:00:00 29,0 12,0 5 3 WNW - 10
19.07.2017 10:00:00 26,6 13,3 8 4 W 1013,6 10
19.07.2017 09:00:00 24,0 14,0 8 4 WSW - 10
19.07.2017 08:00:00 23,0 14,0 9 5 W - 10
19.07.2017 07:00:00 22,6 14,2 5 3 WSW 1013,5 10
19.07.2017 06:00:00 23,0 14,0 5 3 WSW - 10
19.07.2017 05:00:00 23,0 14,0 5 3 WSW - 10
19.07.2017 04:00:00 24,0 13,8 9 5 SW 1012,7 10
19.07.2017 03:00:00 - - - - - - -
19.07.2017 02:00:00 - - - - - - -
19.07.2017 01:00:00 29,0 10,0 9 5 NE - 10
19.07.2017 00:00:00 29,0 12,0 9 5 NE - 10
18.07.2017 23:00:00 - - - - - - -
18.07.2017 22:00:00 - - - - - - -
18.07.2017 21:00:00 33,0 10,0 16 9 N - 10
18.07.2017 20:00:00 - - - - - - -
18.07.2017 19:00:00 - - - - - - -
18.07.2017 18:00:00 - - - - - - -
18.07.2017 17:00:00 - - - - - - -
18.07.2017 16:00:00 - - - - - - -
18.07.2017 15:00:00 - - - - - - -
18.07.2017 14:00:00 - - - - - - -
18.07.2017 13:00:00 - - - - - - -
18.07.2017 12:00:00 31,0 14,0 13 7 W - 10
18.07.2017 11:00:00 29,0 14,0 11 6 W - 10
18.07.2017 10:00:00 27,2 14,2 9 5 W 1010,7 10
18.07.2017 09:00:00 26,0 14,0 9 5 W - 10
18.07.2017 08:00:00 25,0 13,0 8 4 WSW - 10
18.07.2017 07:00:00 24,5 13,7 4 2 WNW 1009,9 10
18.07.2017 06:00:00 25,0 14,0 8 4 SSW - 10
18.07.2017 05:00:00 24,0 14,0 9 5 SW - 10
18.07.2017 04:00:00 24,7 15,1 9 5 WSW 1010,0 10
18.07.2017 03:00:00 25,0 15,0 9 5 W - 10
18.07.2017 02:00:00 27,0 16,0 8 4 SW - 10
18.07.2017 01:00:00 27,2 15,6 9 5 WSW 1010,0 10
18.07.2017 00:00:00 29,0 15,0 16 9 WSW - 10
17.07.2017 23:00:00 34,0 7,0 13 7 WSW - 10
17.07.2017 22:00:00 36,8 4,9 13 7 N 1008,0 10
17.07.2017 21:00:00 39,0 0,0 15 8 S - 10
17.07.2017 20:00:00 39,0 0,0 22 12 ESE - 10
17.07.2017 19:00:00 38,8 0,3 41 22 ESE 1006,4 10
17.07.2017 18:00:00 41,0 0,0 37 20 ESE - 5
17.07.2017 17:00:00 42,0 -3,0 21 11 E - 10
17.07.2017 16:00:00 42,1 -5,3 11 6 NNW 1006,5 10
17.07.2017 15:00:00 - - - - - - -
17.07.2017 14:00:00 41,0 -2,0 11 6 N - 10
17.07.2017 13:00:00 38,9 -1,3 11 6 NNW 1007,8 10
17.07.2017 12:00:00 37,0 2,0 4 2 - - 10
17.07.2017 11:00:00 35,0 2,0 8 4 NNW - 10
17.07.2017 10:00:00 33,3 3,2 4 2 NNW 1009,5 10
17.07.2017 09:00:00 30,0 5,0 5 3 SW - 10
17.07.2017 08:00:00 29,0 3,0 5 3 SW - 10
17.07.2017 07:00:00 28,1 2,3 8 4 WSW 1010,4 10
17.07.2017 06:00:00 27,0 3,0 8 4 WSW - 10
17.07.2017 05:00:00 27,0 4,0 8 4 WSW - 10
17.07.2017 04:00:00 29,2 3,2 5 3 WSW 1009,8 10
17.07.2017 03:00:00 31,0 2,0 15 8 SW - 10
17.07.2017 02:00:00 31,0 1,0 15 8 SW - 10
17.07.2017 01:00:00 32,0 0,2 8 4 W 1010,1 10
17.07.2017 00:00:00 36,0 -2,0 5 3 WNW - 10
16.07.2017 23:00:00 36,0 -2,0 21 11 SW - 10
16.07.2017 22:00:00 38,3 -1,7 13 7 N 1008,6 10
16.07.2017 21:00:00 40,0 -4,0 18 10 N - 10
16.07.2017 20:00:00 42,0 -3,0 21 11 NNW - 10
16.07.2017 19:00:00 43,7 -4,2 22 12 N 1005,6 10

tt = temperature
td = dewpoint
ff = wind speed
dd = wind direction
ppp = reduced air pressure
vv = visibility

Next stations